[[{"header":{"parameterUnit":"m.s-1","parameterCategory":1,"la1":30.2991,"la2":30.254,"lo1":-89.0895,"lo2":-89.0444,"dy":0.0017,"dx":0.0017,"nx":28,"ny":28,"refTime":"2024-02-15T03:00:00:Z","depth":0,"parameterNumber":2,"parameterNumberName":"U-component_of_WINDS"},"data":[0,0,0,0,0,0,0,0,0,0,0,0,0,0,0,0,0,0,0,0,0,0,0,0,0,0,0,0,0,0,0,0,0,0,0,0,0,0,0,0,0,0,0,0,0,0,0,0,0,0,0,0,0,0,0,0,0,0,0.373,0.3729,0,0.3726,0.3726,0.3726,0.371,0.3709,0.3709,0.3708,0.3705,0.3705,0.3706,0,0,0,0,0,0,0,0,0,0,0,0,0,0.3721,0.3721,0.373,0.3729,0.3729,0.3726,0.3726,0.3726,0.371,0.3709,0.3709,0.3708,0.3705,0.3705,0.3706,0,0,0,0,0,0,0,0,0,0,0,0,0,0.3722,0.3721,0.373,0.3721,0.372,0.3726,0.3726,0.3726,0.371,0.3709,0.3709,0.3708,0.3705,0.3705,0.3706,0.372,0,0,0.3707,0.3707,0,0,0,0,0,0,0,0,0.3722,0.3722,0.3722,0.3721,0.372,0.3718,0.3722,0.3724,0.371,0.3714,0.3708,0.3708,0.371,0.371,0.3711,0.372,0.372,0.3707,0.3707,0.3708,0.3708,0,0,0,0,0,0,0,0.3722,0.3722,0.3728,0.3722,0.3721,0.3717,0.3716,0.3722,0.3715,0.3713,0.3712,0.3712,0.3709,0.371,0.371,0.372,0.3707,0.3708,0.3708,0.3708,0.3741,0.3741,0,0,0,0,0,0,0.3723,0.3722,0.3728,0.3728,0.372,0.3718,0.3717,0.3719,0.3715,0.3714,0.3712,0.3711,0.371,0.371,0.371,0.3726,0.3708,0.3708,0.3708,0.374,0.3741,0.3742,0,0,0,0,0,0,0.3723,0.3724,0.3728,0.3725,0.3725,0.3718,0.3721,0.372,0.372,0.3714,0.3713,0.3715,0.3709,0.371,0.3718,0.3726,0.3708,0.3709,0.374,0.374,0.3741,0.3759,0,0,0,0,0,0,0.3723,0.3724,0.3729,0.3725,0.3725,0.3736,0.3722,0.372,0.3721,0.3719,0.3716,0.3715,0.3709,0.3717,0.3718,0.3726,0.3709,0.3739,0.374,0.3741,0.3758,0.3761,0.3763,0,0,0,0,0,0.3722,0.3735,0.373,0.373,0.3732,0.3737,0.3737,0.373,0.3722,0.3727,0.3723,0.3715,0.3725,0.3718,0.3719,0.3728,0.3738,0.374,0.3741,0.3757,0.376,0.3763,0,0,0,0,0,0,0.374,0.3734,0.3728,0.374,0.3739,0.3734,0.3741,0.3734,0.3735,0.3733,0.3724,0.3724,0.3733,0.3731,0.3724,0.3741,0.373,0.3732,0.3742,0.3745,0.3748,0.3748,0.3709,0,0,0,0,0,0.3745,0.3749,0.3744,0.3754,0.3754,0.3748,0.3749,0.3744,0.3743,0.3742,0.3739,0.3738,0.3741,0.3743,0.3745,0.3758,0.3756,0.3764,0.3766,0.3769,0.377,0.3776,0.3779,0.3746,0.3746,0.3746,0,0,0.3756,0.3753,0.3756,0.3758,0.3757,0.3761,0.3747,0.3753,0.3756,0.3743,0.375,0.3748,0.3746,0.3757,0.3761,0.3755,0.3779,0.377,0.3772,0.3772,0.3777,0.378,0.3783,0.3747,0.3747,0.3747,0,0,0.3777,0.3776,0.3784,0.3783,0.3782,0.3777,0.3779,0.3775,0.3773,0.378,0.3771,0.3774,0.3779,0.3778,0.3779,0.38,0.3792,0.3801,0.3814,0.382,0.3822,0.3825,0.3831,0.3834,0.3802,0.3802,0.3802,0,0.3791,0.3797,0.379,0.3795,0.3796,0.3785,0.3793,0.3792,0.3791,0.3792,0.3786,0.3792,0.379,0.3799,0.3804,0.3805,0.3807,0.3801,0.3823,0.3825,0.3827,0.3833,0.3836,0.3803,0.3803,0.3803,0.3803,0,0.3814,0.3818,0.3825,0.3824,0.3826,0.3833,0.3826,0.3828,0.3823,0.3819,0.3826,0.3823,0.3825,0.3827,0.3821,0.3835,0.3832,0.3824,0.3813,0.3831,0.3837,0.3839,0.3805,0.3805,0.3804,0.3804,0,0,0.3846,0.3841,0.3843,0.3842,0.384,0.3843,0.3849,0.385,0.3852,0.3852,0.3857,0.3862,0.3855,0.3855,0.3849,0.3854,0.387,0.3846,0.3846,0.385,0.3885,0.389,0.3893,0.3865,0.3866,0.3866,0.3885,0,0.3866,0.3876,0.3869,0.3881,0.3885,0.3874,0.3879,0.3878,0.3874,0.3877,0.3873,0.3876,0.3867,0.3867,0.3872,0.3867,0.3877,0.3866,0.3869,0.3869,0.3869,0.3896,0.3901,0.3919,0.3887,0.3887,0.3888,0,0.3891,0.3892,0.3903,0.3899,0.39,0.3905,0.3906,0.3908,0.3907,0.3904,0.3904,0.3897,0.3902,0.3892,0.3899,0.3892,0.3893,0.3891,0.3891,0.3891,0.3879,0.3895,0.3924,0.3927,0.3891,0.3891,0.3891,0,0.3912,0.3916,0.3923,0.3923,0.3919,0.3922,0.3921,0.3918,0.3919,0.392,0.392,0.3921,0.3922,0.3923,0.3916,0.3909,0.3924,0.3913,0.3921,0.3921,0.3924,0.3924,0.3953,0.3926,0.3926,0.3926,0.3926,0,0.3935,0.3942,0.3933,0.3937,0.3945,0.3937,0.3945,0.3942,0.394,0.3944,0.3935,0.3938,0.3929,0.3932,0.3927,0.3933,0.3934,0.3931,0.393,0.3932,0.3932,0.3931,0.393,0.3927,0.3927,0.3927,0.3926,0,0.396,0.3954,0.3961,0.3956,0.3955,0.3961,0.3957,0.3961,0.3956,0.3961,0.3962,0.3955,0.3958,0.3951,0.3953,0.3949,0.3958,0.3955,0.3959,0.3958,0.3966,0.3965,0.3995,0.3998,0.397,0.397,0.3971,0,0.3974,0.398,0.3975,0.3977,0.3976,0.3979,0.3979,0.3972,0.3973,0.3971,0.3975,0.3977,0.3978,0.3982,0.3977,0.3978,0.3975,0.3985,0.3975,0.3976,0.3974,0.3973,0.3974,0.3987,0.3988,0.3988,0.3988,0,0.4,0.3997,0.3999,0.3999,0.4001,0.4001,0.4,0.4002,0.3994,0.3996,0.3998,0.3999,0.4,0.4002,0.4002,0.4,0.3992,0.3992,0.3993,0.3995,0.3997,0.3995,0.3964,0.3991,0.399,0.399,0.399,0.399,0.402,0.4024,0.4021,0.4023,0.4022,0.4022,0.4025,0.4021,0.4023,0.4023,0.4019,0.4022,0.4019,0.4019,0.4018,0.402,0.4015,0.4018,0.4018,0.4019,0.402,0.3997,0.402,0.402,0.402,0.402,0.402,0,0.4045,0.4043,0.4044,0.4044,0.4045,0.4039,0.4037,0.4039,0.4042,0.404,0.4041,0.4044,0.4045,0.4041,0.4042,0.4044,0.4041,0.4045,0.4044,0.4043,0.4025,0.4023,0.4047,0.4047,0.4047,0.4047,0.4047,0.4047,0.4058,0.4064,0.406,0.4066,0.4063,0.4066,0.4066,0.4066,0.4064,0.4067,0.4068,0.4065,0.4063,0.4063,0.4064,0.4063,0.4063,0.4068,0.4065,0.4048,0.4045,0.4042,0.404,0.4068,0.4068,0.4084,0.4084,0.4084]},{"header":{"parameterUnit":"m.s-1","parameterCategory":1,"la1":30.2991,"la2":30.254,"lo1":-89.0895,"lo2":-89.0444,"dy":0.0017,"dx":0.0017,"nx":28,"ny":28,"refTime":"2024-02-15T03:00:00:Z","depth":0,"parameterNumber":3,"parameterNumberName":"V-component_of_WINDS"},"data":[0,0,0,0,0,0,0,0,0,0,0,0,0,0,0,0,0,0,0,0,0,0,0,0,0,0,0,0,0,0,0,0,0,0,0,0,0,0,0,0,0,0,0,0,0,0,0,0,0,0,0,0,0,0,0,0,0,0,-0.5517,-0.5516,0,-0.5346,-0.5345,-0.5343,-0.529,-0.5291,-0.5292,-0.5293,-0.5117,-0.5112,-0.5106,0,0,0,0,0,0,0,0,0,0,0,0,0,-0.5798,-0.5793,-0.5518,-0.5515,-0.5513,-0.5347,-0.5344,-0.5342,-0.529,-0.5291,-0.5292,-0.5293,-0.5119,-0.5113,-0.5106,0,0,0,0,0,0,0,0,0,0,0,0,0,-0.5656,-0.5791,-0.5518,-0.5467,-0.5461,-0.5347,-0.5344,-0.5341,-0.529,-0.5291,-0.5292,-0.5293,-0.5121,-0.5113,-0.5105,-0.5029,0,0,-0.508,-0.5077,0,0,0,0,0,0,0,0,-0.5664,-0.5646,-0.5477,-0.5471,-0.5463,-0.5341,-0.5379,-0.5237,-0.5289,-0.5355,-0.5293,-0.5294,-0.5191,-0.5177,-0.5142,-0.5021,-0.5014,-0.5079,-0.5074,-0.5071,-0.5069,0,0,0,0,0,0,0,-0.5674,-0.5653,-0.545,-0.5474,-0.5466,-0.5453,-0.5434,-0.5352,-0.5268,-0.5349,-0.5345,-0.5325,-0.5187,-0.515,-0.5137,-0.5011,-0.508,-0.5072,-0.5067,-0.5064,-0.4818,-0.4816,0,0,0,0,0,0,-0.5693,-0.5662,-0.5455,-0.5445,-0.5569,-0.5446,-0.5426,-0.5379,-0.5268,-0.5253,-0.5325,-0.5324,-0.5163,-0.5147,-0.5131,-0.5033,-0.5071,-0.5063,-0.5059,-0.4819,-0.4817,-0.4816,0,0,0,0,0,0,-0.5699,-0.5675,-0.5462,-0.5552,-0.5524,-0.544,-0.5388,-0.5375,-0.5338,-0.525,-0.5235,-0.5302,-0.5164,-0.5143,-0.5055,-0.5027,-0.506,-0.5052,-0.4821,-0.4819,-0.4816,-0.4839,0,0,0,0,0,0,-0.5707,-0.5677,-0.5648,-0.5552,-0.5519,-0.5389,-0.5387,-0.5371,-0.5324,-0.5321,-0.5225,-0.521,-0.5163,-0.5067,-0.5046,-0.5016,-0.5046,-0.4823,-0.482,-0.4817,-0.4841,-0.4838,-0.4836,0,0,0,0,0,-0.5717,-0.5662,-0.5647,-0.5622,-0.5481,-0.5388,-0.5369,-0.5316,-0.5322,-0.5291,-0.5234,-0.5213,-0.5034,-0.5059,-0.5035,-0.5002,-0.4825,-0.4821,-0.4817,-0.4842,-0.4838,-0.4836,0,0,0,0,0,0,-0.5757,-0.5648,-0.5631,-0.5542,-0.5474,-0.5379,-0.5339,-0.5315,-0.5244,-0.5244,-0.5182,-0.5161,-0.5077,-0.5031,-0.506,-0.4922,-0.4928,-0.492,-0.4955,-0.4951,-0.4948,-0.4961,-0.5039,0,0,0,0,0,-0.5756,-0.5689,-0.5598,-0.5528,-0.5495,-0.5423,-0.538,-0.5346,-0.5273,-0.5244,-0.5181,-0.5111,-0.5039,-0.4993,-0.4921,-0.4834,-0.4811,-0.4799,-0.4797,-0.4795,-0.4788,-0.4737,-0.473,-0.4803,-0.4804,-0.4804,0,0,-0.5752,-0.5684,-0.5646,-0.5534,-0.5478,-0.541,-0.5399,-0.5328,-0.5277,-0.5233,-0.5146,-0.5097,-0.5015,-0.4927,-0.4885,-0.4886,-0.4763,-0.4791,-0.479,-0.4783,-0.4732,-0.4726,-0.472,-0.4801,-0.4801,-0.4802,0,0,-0.5709,-0.5652,-0.5587,-0.5531,-0.5445,-0.5397,-0.5382,-0.529,-0.5256,-0.5167,-0.5132,-0.5071,-0.4948,-0.489,-0.4845,-0.478,-0.4757,-0.4759,-0.4745,-0.4696,-0.469,-0.4684,-0.466,-0.4652,-0.4752,-0.4752,-0.4752,0,-0.5715,-0.5611,-0.5557,-0.5487,-0.5438,-0.5396,-0.5329,-0.5277,-0.5173,-0.514,-0.5142,-0.4986,-0.4928,-0.4825,-0.4809,-0.4774,-0.4754,-0.4769,-0.4695,-0.4689,-0.4683,-0.4659,-0.465,-0.4753,-0.4753,-0.4753,-0.4753,0,-0.5622,-0.5551,-0.5508,-0.5408,-0.5355,-0.5287,-0.5222,-0.5174,-0.5144,-0.5096,-0.5006,-0.4934,-0.4847,-0.482,-0.4791,-0.4712,-0.4715,-0.4708,-0.4713,-0.4678,-0.4654,-0.4644,-0.4754,-0.4753,-0.4753,-0.4753,0,0,-0.5599,-0.547,-0.5455,-0.5408,-0.5311,-0.5254,-0.5184,-0.5098,-0.5058,-0.4988,-0.4927,-0.4823,-0.4815,-0.4764,-0.4727,-0.4684,-0.4635,-0.4681,-0.4678,-0.4673,-0.4543,-0.4548,-0.4538,-0.462,-0.4618,-0.4616,-0.4549,0,-0.5543,-0.5416,-0.5365,-0.5261,-0.5194,-0.5152,-0.5091,-0.5024,-0.4977,-0.4913,-0.4861,-0.4788,-0.4783,-0.4752,-0.4707,-0.465,-0.4608,-0.4655,-0.4561,-0.4558,-0.4581,-0.4526,-0.4532,-0.4472,-0.454,-0.4538,-0.4537,0,-0.5461,-0.5389,-0.5279,-0.5189,-0.5158,-0.5104,-0.5021,-0.496,-0.4883,-0.4852,-0.4794,-0.476,-0.4683,-0.4695,-0.4588,-0.4621,-0.458,-0.4546,-0.4543,-0.4531,-0.4545,-0.4511,-0.4452,-0.4443,-0.4522,-0.4523,-0.4524,0,-0.5454,-0.533,-0.5247,-0.5209,-0.5102,-0.5064,-0.5018,-0.4942,-0.4893,-0.4821,-0.4788,-0.4708,-0.4664,-0.4603,-0.4547,-0.456,-0.4445,-0.4452,-0.4416,-0.4418,-0.4393,-0.4395,-0.4325,-0.4369,-0.4369,-0.4369,-0.437,0,-0.5396,-0.533,-0.5242,-0.5192,-0.5116,-0.5057,-0.4984,-0.4934,-0.4867,-0.4805,-0.4765,-0.4708,-0.4639,-0.4573,-0.4529,-0.4447,-0.4427,-0.4399,-0.4388,-0.4402,-0.4405,-0.4373,-0.4375,-0.4367,-0.4367,-0.4368,-0.4368,0,-0.5374,-0.5313,-0.5221,-0.5126,-0.5101,-0.5049,-0.4968,-0.4917,-0.4868,-0.479,-0.4769,-0.4692,-0.4612,-0.4551,-0.4447,-0.4417,-0.433,-0.4319,-0.4356,-0.4349,-0.4316,-0.432,-0.4222,-0.4205,-0.4263,-0.4262,-0.4262,0,-0.534,-0.5288,-0.5188,-0.5144,-0.5098,-0.5027,-0.4977,-0.4918,-0.4867,-0.4775,-0.4735,-0.4652,-0.4582,-0.4456,-0.4391,-0.4311,-0.4296,-0.4267,-0.4284,-0.4299,-0.4294,-0.4297,-0.4291,-0.4265,-0.4265,-0.4264,-0.4264,0,-0.5286,-0.5259,-0.5189,-0.5107,-0.5049,-0.4982,-0.4915,-0.4881,-0.4809,-0.4754,-0.4671,-0.4617,-0.4511,-0.4429,-0.4342,-0.4293,-0.4266,-0.426,-0.4247,-0.426,-0.4283,-0.4268,-0.4348,-0.4262,-0.4262,-0.4262,-0.4262,-0.4263,-0.5256,-0.5208,-0.5129,-0.5052,-0.4995,-0.4933,-0.4879,-0.4824,-0.4754,-0.4662,-0.4631,-0.4546,-0.4469,-0.435,-0.43,-0.4232,-0.4231,-0.4213,-0.4208,-0.4204,-0.4205,-0.4295,-0.4216,-0.4216,-0.4216,-0.4216,-0.4216,0,-0.5199,-0.5146,-0.5076,-0.4982,-0.4921,-0.4902,-0.4826,-0.4776,-0.4701,-0.4632,-0.4564,-0.4468,-0.4388,-0.4316,-0.4233,-0.4192,-0.4177,-0.4172,-0.4174,-0.4162,-0.4211,-0.423,-0.4185,-0.4185,-0.4185,-0.4185,-0.4185,-0.4185,-0.5162,-0.5078,-0.5041,-0.4928,-0.4875,-0.4791,-0.4749,-0.4691,-0.4635,-0.453,-0.4463,-0.4417,-0.4346,-0.4257,-0.4182,-0.4163,-0.4134,-0.4131,-0.4109,-0.4155,-0.4159,-0.4163,-0.418,-0.4126,-0.4126,-0.4065,-0.4065,-0.4065]}]]